Tracking 17694 objects as of 26-May-2016
HD Live streaming from Space Station
objects crossing your sky now

ARIANE 5 R/B

Track ARIANE 5 R/B now!


NORAD ID: 29275
Int'l Code: 2006-033D
Perigee: 299.3 km
Apogee: 33,370.1 km
Inclination: 6.4 °
Period: 586.3 minutes
Semi major axis: 23205 km
RCS: 37.7588 m2 (large)
Launch date: August 11, 2006
Source: France (FR)
Launch site: FRENCH GUIANA (FRGUI)

Note: This is a ROCKET BODY
Your satellite tracking list
Your tracking list is empty





NASA's NSSDC Master Catalog

Two Line Element Set (TLE):
1 29275U 06033D   16146.43239392  .00000263  00000-0  22729-3 0  9996
2 29275   6.3707  20.5932 7125581 342.4903   2.2187  2.45589913 84306
Source of the keplerian elements: AFSPC

N2YO: 631